map of KUL home
KUL - Airport
Location
City:  Kuala Lumpur, Selangor, Malaysia
Near (Alt.):Sepang
Name:Kuala Lumpur International Airport
ICAO:WMKK
IATA:KUL

Details
Type:Airport (Aerodrome, Airfield)
Use:Public/Civil, International (customs port of entry)
Latitude:244'44"N (2.745578)
Longitude:10142'36"E (101.709917)
Datum:WGS 1984
Elevation:69 ft (21 m)
Variation:0.01E (WMM2015 magnetic declination)
0.01 annual change
Runways:2
Longest:13530 × 197 ft (4124 × 60 m), paved

Time
Time Zone:UTC+8
Local Time:

Weather
METAR:WMKK 210800Z 18007KT 110V260 9999 FEW017CB BKN280 33/24 Q1005 NOSIG
TAF:WMKK 210500Z 2106/2212 17007KT 9999 FEW017CB
BECMG 2112/2114 FEW030
BECMG 2116/2118 VRB03KT FEW017CB PROB30
TEMPO 2119/2123 5000 TSRA FEW016CB SCT020

Related Locations
Nearby:
Farthest:SEPC: 12449 mi / 20034 km
Patuca, S, EC

Find:

   beyond  
but within

Other Information
Maps:
NOTAMs:
Links:
Sources:

  
  • flag of Malaysia
  • flag of Selangor
  • flag of Kuala Lumpur
  

Sectional Chart

Flight Planning
at skyvector.com

Satellite Image

Google Maps Satellite view

 

Copyright © 2004-2018 Karl L. Swartz. All rights reserved.
The Great Circle Mapper name and logo are trademarks of the Great Circle Mapper.
All other trademarks mentioned herein belong to their respective owners.
Please see credits for attibutions and further copyright information.

  Follow gcmap on Facebook Follow gcmap on Twitter Follow gcmap on Google+ GCmap on LinkedIn

hCard Microformat

Geo Microformat